Сургутиха

Россия / Красноярский край     63°41′25″N   87°10′57″E
темп.,
°C
ветер,
м/с
пор.,
м/с
влажн.,
%
обл.,
%
осадки,
мм/ч
давл.,
гПа
погр.,
м
24 июня, чт
чт2401:00+10св1295100 0.3 101245
04:00+11с2299100 0.3 101059
07:00+11ю1199100 0.8 100917
10:00+11з1198100 0.6 100859
13:00+12ссз1296100 1.2 1008160
16:00+12ссз1198100 0.4 100779
19:00+12с2399100 2.5 100796
22:00+12сз2599100 3.3 1005149
25 июня, пт
пт2501:00+12з3999100 5.8 1004314
04:00+12зсз4897100 0.4 1002322
07:00+11сз4994100 0.6 1001353
10:00+10зсз4996100 1.6 1002344
13:00+11сз51197100 10.0 1002606
16:00+11зсз51097100 13.8 1003792
19:00+10з4998100 19.5 1005439
22:00+8сз21092100 4.6 1006396
26 июня, сб
сб2601:00+9з3990100 4.9 1006278
04:00+6зсз3989100 0.0 1005216
07:00+8сз3675100 0.0 1007460
10:00+11сз5756100 0.0 10061003
13:00+12ссз4649100 0.0 10071455
16:00+13ссз4748100 0.0 10061555
19:00+14ссз364777 0.0 10061815
22:00+11сз2364100 0.0 100672
27 июня, вс
вс2701:00+8сз227359 0.0 100632
04:00+6з2577100 0.0 100592
07:00+9з3564100 0.0 1006314
10:00+12з3551100 0.0 10061315
13:00+12з3550100 0.0 10061441
16:00+12зсз2452100 0.0 10061453
19:00+13зюз1353100 0.0 10061364
22:00+10зюз2670100 0.1 1006328
28 июня, пн
пн2801:00+8юз2592100 0.6 1006215
04:00+8юз2698100 2.3 1006321
07:00+7ююз2598100 3.9 1006299
10:00+8ююз2598100 0.5 1006406
13:00+9юз2697100 0.9 1007418
16:00+8ююз2497100 0.8 1008313
19:00+9ю1394100 0.9 1008297
22:00+8ююз0198100 0.3 100917